www.pogodaiklimat.ru

Погода и климат >> Архив погоды >> Южная Африка >> Langebaan


ПОГОДА в Langebaan

  • Прогноз погоды в Langebaan
  • Монитор погоды в Langebaan
  • Климат города

АРХИВ ПОГОДЫ в Langebaan

Время (UTC), дата Ветер
(напр.,м/с)
 
Видим.   Явления Облачность Т
(С)
Тd
(С)
f
(%)
Тe
(С)
Тes
(С)
Комфортность P
(гПа)
Po
(гПа)
Тmin
(С)
Tmax
(С)
R
(мм)
R24
(мм)
S
(см)
03 9.07 ЮВ 1 н/о н/о +3.9 +2.5 91 +2 +2 857.0 972.1 +3.9 +22.8
06 9.07 ЮВ 1 н/о н/о +3.2 +2.0 92 +2 +2 856.8 972.2 +3.1
09 9.07 С 1 н/о н/о +13.1 +6.5 64 +13 +13 860.8 972.2 +3.1 +13.1
12 9.07 З 1 н/о н/о +20.9 +6.2 38 +23 +23 комфорт 861.8 969.9 +3.1 +21.1
15 9.07 штиль 0 н/о н/о +22.2 +10.2 46 +24 +24 комфорт 861.3 968.8 +20.8 +23.9
18 9.07 В 1 н/о н/о +11.8 +8.4 80 +12 +12 858.1 969.8 +11.8 +23.9
21 9.07 В 1 н/о н/о +8.0 +6.1 88 +7 +7 857.7 971.1 +8.0 +23.9
00 10.07 штиль 0 н/о н/о +6.9 +5.6 91 +6 +6 856.6 970.3 +6.3 +23.9
03 10.07 В 1 н/о н/о +5.0 +3.9 93 +4 +4 856.0 970.5 +4.9 +23.9
06 10.07 ЮВ 1 н/о н/о +4.6 +3.5 93 +3 +3 857.2 972.0 +4.1
09 10.07 С 1 н/о н/о +13.5 +7.7 68 +14 +14 860.7 971.9 +4.1 +13.5
15 10.07 С 1 н/о н/о +20.6 +10.5 52 +23 +23 комфорт 860.6 968.7 +20.2 +23.1
21 10.07 штиль 0 н/о н/о +9.3 +7.2 87 +9 +9 857.6 970.3 +9.1 +23.1
00 11.07 ЮВ 1 н/о н/о +6.6 +4.9 89 +5 +5 856.1 969.8 +6.6 +23.1
03 11.07 В 1 н/о н/о +5.3 +3.9 91 +4 +4 854.3 968.4 +5.3 +23.1
06 11.07 Ю 1 н/о н/о +5.3 +4.2 93 +4 +4 853.8 967.8 +4.4 0.2
09 11.07 СЗ 1 н/о н/о +14.5 +8.2 66 +15 +15 856.7 967.1 +4.4 +14.6
15 11.07 СЗ 4 н/о н/о +22.1 +8.7 42 +23 +23 комфорт 854.3 961.3 +21.6 +24.8
21 11.07 штиль 0 н/о н/о +12.0 +4.5 60 +12 +12 851.1 961.9 +11.8 +24.8
00 12.07 СЗ 3 н/о н/о +17.2 +2.8 38 +17 +17 852.7 961.5 +10.6 +24.8
03 12.07 З 8 н/о н/о +17.1 +1.6 35 +16 +16 852.1 960.9 +10.6 +24.8
06 12.07 СЗ 5 н/о н/о +15.6 +6.6 55 +15 +15 853.5 963.1 +10.6
09 12.07 З 5 н/о н/о +12.2 +8.5 78 +10 +10 853.1 964.1 +10.6 +15.7
15 12.07 З 3 н/о н/о +10.7 +6.0 73 +9 +9 852.6 964.1 +10.3 +15.7
18 12.07 З 3 н/о н/о +10.1 +6.2 77 +8 +8 854.1 966.0 +9.4 +15.7 2
21 12.07 В 1 н/о н/о +9.6 +5.4 75 +9 +9 854.0 966.2 +9.2 +15.7
03 13.07 З 2 н/о н/о +9.8 +3.3 64 +8 +8 854.4 966.5 +9.0 +15.7
06 13.07 штиль 0 н/о н/о +9.4 +2.9 64 +9 +9 856.0 968.5 +9.0 3
09 13.07 С 1 н/о н/о +9.7 +4.3 69 +9 +9 857.5 970.0 +8.8 +10.0
12 13.07 З 5 н/о н/о +10.3 +5.1 70 +8 +8 856.3 968.4 +8.8 +11.7 2
15 13.07 ЮВ 1 н/о н/о +8.8 +6.9 88 +8 +8 856.8 969.7 +8.6 +11.7
18 13.07 З 1 н/о н/о +8.3 +7.0 92 +7 +7 858.2 971.5 +8.2 +11.7 16
21 13.07 штиль 0 н/о н/о +7.8 +6.5 91 +7 +7 858.8 972.4 +7.8 +11.7
03 14.07 СВ 1 н/о н/о +6.0 +5.1 94 +5 +5 860.2 974.8 +6.0 +11.7
06 14.07 С 1 н/о н/о +5.9 +5.3 96 +5 +5 861.6 976.5 +5.8 23
09 14.07 З 1 н/о н/о +7.2 +6.4 95 +6 +6 864.0 978.6 +5.8 +7.3
12 14.07 ЮЗ 1 н/о н/о +14.4 +5.5 55 +15 +15 865.6 977.0 +5.8 +14.4
15 14.07 ЮВ 1 н/о н/о +15.0 +3.8 47 +16 +16 866.3 977.5 +13.6 +16.6
18 14.07 СЗ 1 н/о н/о +10.1 +3.1 62 +10 +10 866.2 979.7 +9.6 +16.6 0.2
21 14.07 З 2 н/о н/о +8.8 +1.9 62 +8 +8 866.6 980.8 +8.3 +16.6
00 15.07 З 2 н/о н/о +8.8 +1.9 62 +8 +8 866.6 980.8 +8.3 +16.6
03 15.07 Ю 1 н/о н/о +3.5 +1.2 85 +2 +2 864.8 981.3 +3.3 +16.6
06 15.07 ЮВ 2 н/о н/о +6.6 +1.1 68 +5 +5 866.5 981.7 +3.3 0.2
09 15.07 В 1 н/о н/о +13.6 +3.1 49 +14 +14 870.2 982.5 +3.3 +13.8
12 15.07 В 1 н/о н/о +17.5 +3.5 39 +19 +19 868.6 978.9 +3.3 +17.5
15 15.07 В 1 н/о н/о +16.4 +2.5 39 +17 +17 866.9 977.5 +16.4 +17.9
18 15.07 ЮВ 1 н/о н/о +10.6 +2.2 56 +11 +11 865.4 978.5 +10.6 +17.9
21 15.07 СЗ 1 н/о н/о +10.0 +3.0 62 +10 +10 864.8 978.1 +9.8 +17.9
00 16.07 ЮЗ 1 н/о н/о +7.9 +1.9 66 +7 +7 864.1 978.3 +7.5 +17.9

 

Местоположение метеостанции Langebaan (Южная Африка): широта -33.08 долгота 18.02 высота над уровнем моря 6 м.

В архиве по умолчанию представлена погода в Langebaan за последнюю неделю. Архивные данные за месяц целиком и за предыдущие месяцы, начиная с января 2011 года, Вы можете получить, выбрав интересующий диапазон дат из раскрывающегося списка и нажав кнопку "Ввод!".


*Определитесь, кто Вы:
робот инопланетянин человек

Внимание! Время в таблицах - всемирное. Для получения местного времени необходимо прибавить поправку, которая в Langebaan равна 2 ч.

Смотрите также архив погоды в соседних городах и на ближайших метеорологических станциях:

Погода в Geelbek (Южная Африка) (16 км)
Погода в Langebaanweg (Южная Африка) (19 км)
Погода в Cape Columbine (Южная Африка) (32 км)
Погода в Malmesbury (Южная Африка) (78 км)
Погода в Robben Island (Южная Африка) (86 км)
Погода в Table Bay (Южная Африка) (99 км)
Погода в Ysterplant (Южная Африка) (101 км)
Погода в Cape Town (Южная Африка) (102 км)
Погода в Cape Town Airport (Южная Африка) (112 км)
Погода в Cape Town Int Airport (Южная Африка) (112 км)

Пояснения к столбцам:

Ветер - указаны скорость ветра в м/с - средняя за 10 мин, порывы в срок и между сроками (в фигурных скобках) и направление, откуда дует ветер: С - северный, СВ - северо-восточный, В - восточный, ЮВ - юго-восточный, Ю - южный, ЮЗ - юго-западный, З - западный, СЗ - северо-западный.
Видимость - горизонтальная дальность видимости в метрах или километрах. При видимости от 1 до 10 км при отсутствии осадков обычно наблюдается дымка, при ухудшении видимости до 1 км и менее - туман. В сухую погоду видимость может ухудшаться дымом, пылью или мглою.
Явления - указаны атмосферные явления, наблюдавшиеся в срок или в последний час перед сроком; фигурными скобками обозначены явления, наблюдавшиеся между сроками (за 1-3 часа до срока); квадратными скобками обозначены град или гололедные отложения с указанием их диаметра в мм.
Облачность - указаны через наклонную черту общая и нижняя облачность в баллах и высота нижней границы облаков в метрах; квадратными скобками обозначены формы облаков: Ci - перистые, Cs - перисто-слоистые, Cc - перисто-кучевые, Ac - высококучевые, As - высокослоистые, Sc - слоисто-кучевые, Ns - слоисто-дождевые, Cu - кучевые, Cb - кучево-дождевые. Подробнее классификацию облаков см. в Атласе облаков (PDF).
T - Температура воздуха - температура, измеренная на высоте 2 м над землей.
Td - Температура точки росы - температура, при понижении до которой содержащийся в воздухе водяной пар достигнет насыщения.
f - Относительная влажность воздуха - влажноcть воздуха, измеренная на высоте 2 м над землей.
Te - Эффективная температура - температура, которую ощущает одетый по сезону человек в тени. Характеристика душности погоды. При расчете учитывается влияние влажности воздуха и скорости ветра на теплоощущения человека.
Tes - Эффективная температура на солнце - температура, которую ощущает человек, с поправкой на солнечный нагрев. Характеристика знойности погоды. Зависит от высоты солнца над горизонтом, облачности и скорости ветра. Ночью, в пасмурную погоду, а также при ветре 12 м/с и более поправка равна нулю.
P - Атмосферное давление - приведенное к уровню моря атмосферное давление.
Po - Атмосферное давление - измеренное на уровне метеостанции атмосферное давление.
Tmin - Минимальная температура - минимум температуры воздуха на высоте 2 м над землей.
Tmax - Максимальная температура - максимум температуры воздуха на высоте 2 м над землей.
R - Количество осадков - Количество выпавших осадков за период времени, мм. При наведении курсора мыши на число - период времени, за который выпало указанное количество осадков.
R24 - Количество осадков - Количество выпавших осадков за 24 часа, мм.
S - Снежный покров - Высота снежного покрова, см. При наведении курсора мыши на число - состояние снежного покрова и степень покрытия местности в баллах.